TimeMDT,TemperatureF,Dew PointF,Humidity,Sea Level PressureIn,VisibilityMPH,Wind Direction,Wind SpeedMPH,Gust SpeedMPH,PrecipitationIn,Events,Conditions,WindDirDegrees,DateUTC
12:53 AM,28.9,21.9,75,29.96,10.0,SSE,6.9,-,N/A,,Clear,160,2013-03-17 06:53:00
1:35 AM,28.4,21.2,74,29.92,10.0,SSE,10.4,-,N/A,,Mostly Cloudy,160,2013-03-17 07:35:00
1:44 AM,26.6,21.2,80,29.92,10.0,SSE,10.4,-,N/A,,Scattered Clouds,150,2013-03-17 07:44:00
1:53 AM,28.0,21.9,78,29.96,10.0,SSE,9.2,-,N/A,,Scattered Clouds,160,2013-03-17 07:53:00
2:53 AM,26.1,21.9,84,29.94,10.0,SSE,11.5,-,N/A,,Clear,160,2013-03-17 08:53:00
3:53 AM,26.6,21.2,80,29.88,10.0,SSE,8.1,-,N/A,,Clear,160,2013-03-17 09:53:00
4:53 AM,25.0,21.9,88,29.90,10.0,SSE,12.7,-,N/A,,Clear,150,2013-03-17 10:53:00
5:53 AM,25.0,21.9,88,29.90,10.0,SSE,12.7,-,N/A,,Mostly Cloudy,160,2013-03-17 11:53:00
6:53 AM,27.0,23.0,85,29.90,10.0,South,12.7,-,N/A,,Overcast,170,2013-03-17 12:53:00
7:06 AM,26.6,23.0,86,29.85,10.0,South,13.8,-,N/A,,Overcast,180,2013-03-17 13:06:00
7:22 AM,26.6,23.0,86,29.84,10.0,South,9.2,-,N/A,,Scattered Clouds,180,2013-03-17 13:22:00
7:53 AM,27.0,23.0,85,29.89,10.0,South,15.0,-,N/A,,Scattered Clouds,170,2013-03-17 13:53:00
8:53 AM,32.0,25.0,75,29.85,10.0,South,23.0,-,N/A,,Clear,170,2013-03-17 14:53:00
9:53 AM,37.9,26.1,62,29.80,10.0,South,29.9,38.0,N/A,,Clear,170,2013-03-17 15:53:00
10:53 AM,43.0,25.0,49,29.77,10.0,South,31.1,39.1,N/A,,Clear,170,2013-03-17 16:53:00
11:53 AM,48.9,25.0,39,29.73,10.0,South,29.9,38.0,N/A,,Clear,170,2013-03-17 17:53:00
12:53 PM,51.1,26.1,38,29.68,10.0,South,31.1,41.4,N/A,,Clear,170,2013-03-17 18:53:00
1:53 PM,52.0,28.0,40,29.63,10.0,South,25.3,36.8,N/A,,Clear,170,2013-03-17 19:53:00
2:53 PM,51.1,30.0,44,29.60,10.0,South,26.5,34.5,N/A,,Mostly Cloudy,170,2013-03-17 20:53:00
3:53 PM,55.0,30.9,40,29.55,10.0,South,24.2,33.4,N/A,,Partly Cloudy,180,2013-03-17 21:53:00
4:53 PM,54.0,32.0,43,29.55,10.0,South,24.2,32.2,N/A,,Clear,170,2013-03-17 22:53:00
5:53 PM,51.1,32.0,48,29.56,10.0,South,21.9,-,N/A,,Partly Cloudy,170,2013-03-17 23:53:00
6:53 PM,46.9,32.0,56,29.62,10.0,ESE,8.1,-,N/A,,Scattered Clouds,120,2013-03-18 00:53:00
7:53 PM,41.0,32.0,70,29.68,10.0,SE,6.9,-,N/A,,Scattered Clouds,130,2013-03-18 01:53:00
8:53 PM,35.1,28.9,78,29.70,10.0,SE,4.6,-,N/A,,Clear,130,2013-03-18 02:53:00
9:53 PM,41.0,37.0,86,29.76,9.0,North,11.5,26.5,0.01,Rain,Light Rain,350,2013-03-18 03:53:00
10:53 PM,41.0,30.0,65,29.79,10.0,NNW,20.7,26.5,0.00,,Overcast,330,2013-03-18 04:53:00
11:53 PM,37.0,26.1,65,29.84,10.0,North,24.2,32.2,N/A,,Overcast,350,2013-03-18 05:53:00